Le Raizet Airport, Guadeloupe

4:16 AM AST on June 18, 2018 (GMT -0400)
Le Raizet

Weather History for TFFR - October, 2017

Change the Weather History Date:

Sunday, October 1, 2017

  Actual Average Record
Temperature  
Mean Temperature 80 °F -  
Max Temperature 87 °F 86 °F 91 °F (1998)
Min Temperature 74 °F 73 °F 73 °F (1996)
Cooling Degree Days 16    
Growing Degree Days 30 (Base 50)    
Moisture  
Dew Point 74 °F    
Average Humidity 81    
Maximum Humidity 100    
Minimum Humidity 58    
Precipitation  
Precipitation 0.04 in 0.30 in - ()
Sea Level Pressure  
Sea Level Pressure 29.87 in    
Wind  
Wind Speed 6 mph ()    
Max Wind Speed 15 mph    
Max Gust Speed -    
Visibility 6.2 miles    
Events Rain    
Averages and records for this station are not official NWS values.
T = Trace of Precipitation, MM = Missing Value Source: Averaged Metar Reports

Daily Weather History Graph

Daily Weather History Graph

Search for Another Location

Airport or City:

Astronomy

Oct. 01, 2017 Rise Set
Actual Time 5:56 AM AST 5:54 PM AST
Civil Twilight 5:34 AM AST 6:16 PM AST
Nautical Twilight 5:09 AM AST 6:41 PM AST
Astronomical Twilight 4:44 AM AST 7:06 PM AST
Moon 3:10 PM AST (10/1) 2:06 AM AST (10/1)
Length of Visible Light 12h 41m
Length of Day
11h 58m
Waxing Gibbous, 82% of the Moon is Illuminated
Oct 1
Waxing Gibbous
Oct 5
Full
Oct 12
Last Quarter
Oct 19
New
Oct 27
First Quarter

Hourly Weather History & Observations

Time (AST) Temp. Heat Index Dew Point Humidity Pressure Visibility Wind Dir Wind Speed Gust Speed Precip Events Conditions
12:00 AM 77.0 °F - 75.2 °F 94% 29.92 in 6.2 mi SSE 3.5 mph - N/A   Unknown
12:30 AM 77.0 °F - 73.4 °F 89% 29.89 in 6.2 mi ESE 4.6 mph - N/A   Mostly Cloudy
1:00 AM 77.0 °F - 73.4 °F 89% 29.89 in - ESE 4.6 mph - N/A   Clear
1:30 AM 77.0 °F - 73.4 °F 89% 29.89 in 6.2 mi ESE 6.9 mph - N/A   Mostly Cloudy
2:00 AM 77 °F - 73 °F 85% 29.89 in 28 mi East 3.5 mph - -   Clear
2:00 AM 77.0 °F - 73.4 °F 89% 29.89 in 6.2 mi East 3.5 mph - N/A   Partly Cloudy
2:30 AM 75.2 °F - 73.4 °F 94% 29.86 in - Variable 1.2 mph - N/A   Clear
3:00 AM 75.2 °F - 73.4 °F 94% 29.86 in - East 2.3 mph - N/A   Clear
3:30 AM 75.2 °F - 73.4 °F 94% 29.86 in 6.2 mi SE 2.3 mph - N/A   Partly Cloudy
4:00 AM 75.2 °F - 73.4 °F 94% 29.86 in - Variable 1.2 mph - N/A   Clear
4:30 AM 75.2 °F - 73.4 °F 94% 29.86 in - East 2.3 mph - N/A   Clear
5:00 AM 74 °F - 73 °F 96% 29.88 in 6 mi Calm Calm - -   Clear
5:00 AM 75.2 °F - 73.4 °F 94% 29.86 in 5.6 mi Calm Calm - N/A   Partly Cloudy
5:30 AM 75.2 °F - 73.4 °F 94% 29.86 in 5.6 mi ESE 2.3 mph - N/A   Partly Cloudy
6:00 AM 73.4 °F - 73.4 °F 100% 29.86 in - South 1.2 mph - N/A   Clear
6:30 AM 75.2 °F - 73.4 °F 94% 29.86 in 6.2 mi Calm Calm - N/A   Partly Cloudy
7:00 AM 77.0 °F - 77.0 °F 100% 29.89 in - SSE 2.3 mph - N/A   Clear
7:30 AM 78.8 °F - 75.2 °F 89% 29.89 in 6.2 mi ESE 4.6 mph - N/A   Mostly Cloudy
8:00 AM 81 °F - 76 °F 80% 29.91 in 22 mi ESE 8.1 mph - -   Clear
8:00 AM 80.6 °F 86.2 °F 75.2 °F 84% 29.89 in 6.2 mi ESE 8.1 mph - N/A   Mostly Cloudy
8:30 AM 84.2 °F 92.3 °F 75.2 °F 74% 29.89 in 6.2 mi ESE 10.4 mph - N/A   Mostly Cloudy
9:00 AM 84.2 °F 90.9 °F 73.4 °F 70% 29.89 in 6.2 mi SE 12.7 mph - N/A   Scattered Clouds
9:30 AM 84.2 °F 90.9 °F 73.4 °F 70% 29.89 in 6.2 mi SE 12.7 mph - N/A   Mostly Cloudy
10:00 AM 86.0 °F 95.1 °F 75.2 °F 70% 29.89 in 6.2 mi ESE 12.7 mph - N/A   Mostly Cloudy
10:30 AM 86.0 °F 95.1 °F 75.2 °F 70% 29.89 in 6.2 mi ESE 11.5 mph - N/A   Mostly Cloudy
11:00 AM 86 °F - 74 °F 60% 29.91 in 37 mi ESE 12.7 mph - -   Clear
11:00 AM 86.0 °F 93.4 °F 73.4 °F 66% 29.89 in 6.2 mi ESE 12.7 mph - N/A   Scattered Clouds
11:30 AM 86.0 °F 91.8 °F 71.6 °F 62% 29.89 in 6.2 mi ESE 11.5 mph - N/A   Scattered Clouds
12:00 PM 87.8 °F 95.6 °F 73.4 °F 62% 29.89 in 6.2 mi SE 11.5 mph - N/A   Mostly Cloudy
12:30 PM 86.0 °F 93.4 °F 73.4 °F 66% 29.86 in 6.2 mi ESE 11.5 mph - N/A   Scattered Clouds
1:00 PM 87.8 °F 97.6 °F 75.2 °F 66% 29.86 in 6.2 mi SE 13.8 mph - N/A   Mostly Cloudy
1:30 PM 87.8 °F 95.6 °F 73.4 °F 62% 29.83 in 6.2 mi SE 13.8 mph - N/A   Mostly Cloudy
2:00 PM 86 °F - 73 °F 58% 29.85 in 34 mi ESE 13.8 mph - -   Clear
2:00 PM 86.0 °F 93.4 °F 73.4 °F 66% 29.83 in 6.2 mi ESE 13.8 mph - N/A   Scattered Clouds
2:30 PM 87.8 °F 95.6 °F 73.4 °F 62% 29.83 in 6.2 mi ESE 13.8 mph - N/A   Partly Cloudy
3:00 PM 86.0 °F 91.8 °F 71.6 °F 62% 29.83 in 6.2 mi SE 13.8 mph - N/A   Scattered Clouds
3:30 PM 86.0 °F 93.4 °F 73.4 °F 66% 29.83 in 6.2 mi SE 13.8 mph - N/A   Partly Cloudy
4:00 PM 86.0 °F 93.4 °F 73.4 °F 66% 29.83 in 6.2 mi ESE 15.0 mph - N/A   Partly Cloudy
4:30 PM 84.2 °F 92.3 °F 75.2 °F 74% 29.83 in 6.2 mi SE 11.5 mph - N/A   Partly Cloudy
5:00 PM 83 °F - 74 °F 69% 29.84 in 37 mi ESE 11.5 mph - -   Clear
5:00 PM 84.2 °F 92.3 °F 75.2 °F 74% 29.83 in 6.2 mi ESE 11.5 mph - N/A   Partly Cloudy
5:30 PM 82.4 °F 88.2 °F 73.4 °F 74% 29.83 in 6.2 mi ESE 9.2 mph - N/A   Partly Cloudy
6:00 PM 82.4 °F 89.5 °F 75.2 °F 79% 29.83 in - ESE 8.1 mph - N/A   Clear
6:30 PM 80.6 °F 86.2 °F 75.2 °F 84% 29.83 in 6.2 mi ESE 6.9 mph - N/A   Scattered Clouds
7:00 PM 80.6 °F 86.2 °F 75.2 °F 84% 29.83 in 6.2 mi East 6.9 mph - N/A   Mostly Cloudy
7:30 PM 80.6 °F 86.2 °F 75.2 °F 84% 29.86 in 6.2 mi East 5.8 mph - N/A   Partly Cloudy
8:00 PM 80 °F - 75 °F 81% 29.88 in 25 mi East 8.1 mph - - Rain Rain
8:00 PM 80.6 °F 86.2 °F 75.2 °F 84% 29.86 in 6.2 mi East 8.1 mph - N/A Rain Rain
8:30 PM 78.8 °F - 75.2 °F 89% 29.86 in 6.2 mi East 3.5 mph - N/A   Scattered Clouds
9:00 PM 78.8 °F - 75.2 °F 89% 29.89 in 6.2 mi East 5.8 mph - N/A   Partly Cloudy
9:30 PM 78.8 °F - 77.0 °F 94% 29.89 in 6.2 mi East 5.8 mph - N/A   Unknown
10:00 PM 78.8 °F - 75.2 °F 89% 29.89 in 6.2 mi ESE 4.6 mph - N/A   Partly Cloudy
10:30 PM 78.8 °F - 77.0 °F 94% 29.89 in - ESE 3.5 mph - N/A   Clear
11:00 PM 78 °F - 74 °F 86% 29.91 in 22 mi ESE 4.6 mph - -   Clear
11:00 PM 78.8 °F - 75.2 °F 89% 29.89 in - ESE 4.6 mph - N/A   Clear
11:30 PM 77.0 °F - 75.2 °F 94% 29.89 in 6.2 mi ESE 4.6 mph - N/A   Unknown